www.pogodaiklimat.ru

Погода и климат >> Архив погоды >> Россия >> Крым >> Карадаг


ПОГОДА в Карадаге

  • Прогноз погоды в Карадаге
  • Монитор погоды в Карадаге

АРХИВ ПОГОДЫ в Карадаге

Время (UTC), дата Ветер
(напр.,м/с)
 
Видим.   Явления Облачность Т
(С)
Тd
(С)
f
(%)
Тe
(С)
Тes
(С)
Комфортность P
(гПа)
Po
(гПа)
Тmin
(С)
Tmax
(С)
R
(мм)
R24
(мм)
S
(см)
06 16.08 Ю 1
{11}
20 км слаб. ливневой дождь 10/6 600 м
[Cb cap Ac und]
+26.4 +17.3 57 +30 +31 душно 1008.2 1003.5 +24.2 0.0
09 16.08 С 4
{11}
50 км {ливн. осадки} 9/4 600 м
[Sc Ac cast]
+29.0 +16.3 46 +32 +35 душно 1008.0 1003.3
12 16.08 С 4
{11}
50 км {ливн. осадки} 10/6 600 м
[Sc Ac und]
+28.4 +17.0 50 +32 +33 душно 1007.6 1002.9
15 16.08 С 3
{10}
20 км 10/4 600 м
[Sc Ac und]
+27.2 +18.0 57 +32 +32 очень
душно
1007.9 1003.2 0.0
18 16.08 С 1 20 км слаб. ливневой дождь 10/10 600 м
[Cb cap]
+22.6 +18.5 78 +28 +28 душно 1010.1 1005.3 +30.4 1
21 16.08 СЗ 1 20 км {ливн. осадки} 9/6 600 м
[Cb cap Ac cast]
+21.6 +18.8 84 +26 +26 душно 1009.9 1005.1
00 17.08 СЗ 2 20 км {ливн. осадки} 9/4 600 м
[Sc Ac cast Ci fib]
+22.2 +16.3 69 +26 +26 душно 1009.7 1004.9
03 17.08 СЗ 4 50 км 9/0
[Ac cast Ci fib]
+21.1 +14.3 65 +24 +24 комфорт 1009.9 1005.1 +21.0 1
06 17.08 СЗ 3 50 км 1/1 600 м
[Cu hum]
+24.4 +13.9 52 +27 +32 жарко 1010.2 1005.4 +19.9 0.1
09 17.08 З 5 50 км 1/0
[Ci fib]
+27.4 +13.8 43 +29 +37 жарко 1010.6 1005.9
12 17.08 Ю 3 50 км 5/3 600 м
[Cu med, cong Ci fib]
+27.8 +16.2 49 +31 +37 душно 1010.9 1006.2
15 17.08 Ю 4 20 км 8/3 600 м
[Cu med, cong Ac cast Ci fib]
+24.0 +18.0 69 +28 +29 душно 1010.8 1006.0
18 17.08 С 3 2800 м 8/3 600 м
[Cu med, cong Ci fib]
+23.5 +11.9 48 +25 +25 комфорт 1011.5 1006.7 +28.6
21 17.08 СЗ 4 20 км 9/0
[Ci]
+21.3 +9.7 47 +23 +23 комфорт 1011.5 1006.7
00 18.08 СЗ 4 20 км 9/0
[Ac cast Ci fib]
+21.0 +11.8 56 +23 +23 комфорт 1011.2 1006.4
03 18.08 С 5 50 км 9/0
[Ac cast]
+20.7 +13.0 61 +23 +23 комфорт 1011.1 1006.3 +19.3
06 18.08 С 4 50 км 9/0
[Ac cast]
+21.0 +14.1 65 +24 +26 комфорт 1011.7 1006.9 +19.3
09 18.08 С 4 50 км 9/0
[Ac cast]
+22.5 +12.7 54 +25 +29 комфорт 1012.5 1007.7
12 18.08 С 3 20 км слаб. ливневой дождь 9/8 600 м
[Cb cap Ac cast]
+22.7 +14.8 61 +26 +28 жарко 1013.2 1008.4
15 18.08 СЗ 4 20 км слаб. ливневой дождь 10/10 600 м
[Cb cap]
+19.4 +14.9 75 +21 +21 комфорт 1014.3 1009.4 0.4
18 18.08 СЗ 2 20 км {ливн. осадки} 9/3 600 м
[Sc Ac cast]
+19.8 +14.3 71 +22 +22 комфорт 1014.8 1009.9 +23.5 0.7
21 18.08 СЗ 3 20 км 9/0
[Ac cast]
+20.9 +14.2 66 +24 +24 комфорт 1015.3 1010.4
00 19.08 С 3 20 км 9/0
[Ci fib]
+20.2 +14.0 68 +23 +23 комфорт 1015.6 1010.7
03 19.08 СЗ 4 50 км 3/0
[Ci fib]
+20.6 +13.7 65 +23 +23 комфорт 1016.0 1011.1 +17.2 0.3
06 19.08 С 5-10
{10}
50 км ясно +22.8 +14.8 61 +27 +30 душно 1016.3 1011.5 +18.1
09 19.08 Ю 3
{10}
50 км 6/6 600 м
[Cu med, cong]
+25.1 +16.9 60 +29 +34 душно 1016.7 1011.9
12 19.08 Ю 4 50 км 6/6 600 м
[Cu med, cong]
+25.6 +17.1 59 +29 +32 душно 1016.7 1011.9
15 19.08 ЮЗ 2 20 км 3/1 600 м
[Cu hum Ac cuf Ci ing]
+24.2 +18.2 69 +29 +30 душно 1017.1 1012.3
18 19.08 СЗ 3 20 км 9/0
[Ci fib]
+23.8 +14.6 56 +26 +26 жарко 1017.9 1013.1 +27.4
21 19.08 СЗ 3 20 км 9/0
[Ac cast Ci fib]
+23.6 +14.1 55 +26 +26 жарко 1017.6 1012.8
00 20.08 СЗ 2 20 км 9/0
[Ci fib]
+23.5 +14.6 57 +26 +26 жарко 1017.3 1012.5
03 20.08 С 5 20 км 9/9 600 м
[Sc]
+23.6 +17.5 69 +28 +28 душно 1017.6 1012.8 +23.4
06 20.08 С 6-10
{11}
20 км 9/9 600 м
[Cu med, cong As trans]
+24.8 +20.4 77 +31 +31 очень
душно
1017.8 1013.0 +22.5
09 20.08 С 8-13
{13}
20 км 9/3 600 м
[Sc diur, vesp Ac lent Ci sp]
+28.1 +20.5 63 +35 +36 очень
душно
1017.0 1012.3
12 20.08 С 9-14
{14}
20 км 6/3 600 м
[Cu med, cong Ac cast]
+30.4 +18.6 49 +35 +36 очень
душно
1016.7 1012.0
15 20.08 С 7-12
{14}
20 км 9/0
[Ac cast Ci]
+28.6 +18.3 54 +33 +34 очень
душно
1017.0 1012.3
18 20.08 С 6-11
{16}
20 км 9/0
[Ac cast Ci fib]
+27.7 +17.6 54 +32 +32 очень
душно
1017.2 1012.5 +30.9
21 20.08 С 8-13
{11}
20 км 9/0
[Ci fib]
+28.2 +17.9 54 +33 +33 очень
душно
1016.7 1012.0
00 21.08 С 7-12
{15}
20 км 9/0
[Ci fib]
+26.9 +19.5 64 +33 +33 очень
душно
1015.7 1011.0
03 21.08 С 6-11
{13}
20 км 9/0
[Ci fib]
+25.8 +20.0 70 +32 +32 очень
душно
1015.7 1010.9 +24.9
06 21.08 С 9-14
{15}
20 км 9/0
[Ac cast Ci fib]
+25.6 +20.9 75 +32 +32 очень
душно
1014.7 1009.9 +24.2
09 21.08 С 9-14
{15}
20 км 9/0
[Ac cast Ci fib]
+29.4 +19.9 57 +36 +37 очень
душно
1013.7 1009.0
12 21.08 С 8-13
{16}
20 км 9/3 600 м
[Sc Ac cast Ci fib]
+29.6 +20.4 58 +36 +37 очень
душно
1013.3 1008.6
15 21.08 С 7-11
{13}
20 км 9/9 600 м
[Cb cap Ac cast]
+27.5 +19.8 63 +33 +33 очень
душно
1012.9 1008.2
18 21.08 С 8-12
{14}
20 км гроза без осадков {ливн. осадки} 9/9 600 м
[Cb cap]
+28.6 +18.2 53 +33 +33 очень
душно
1012.9 1008.2 +31.1 0.0
21 21.08 СЗ 7-14
{14}
20 км в посл. час ливневой дождь {гроза} 9/4 600 м
[Cb cap Ac cast Ci fib]
+28.3 +19.1 57 +34 +34 очень
душно
1012.5 1007.8
00 22.08 С 6-10
{14}
20 км 9/0
[Ac cast]
+27.4 +19.6 62 +33 +33 очень
душно
1011.3 1006.6
03 22.08 С 7-11
{11}
50 км 9/8 600 м
[Cb cap Ac cast]
+26.4 +18.8 63 +31 +31 душно 1010.6 1005.9 +25.1 0.0
06 22.08 СЗ 7-14
{17}
50 км 9/3 600 м
[Cu med, cong Ac lent Ci ing]
+27.2 +19.4 62 +33 +33 очень
душно
1011.4 1006.7 +24.9
09 22.08 СЗ 6-13
{15}
50 км 9/0
[Ac lent Ci ing]
+31.2 +20.1 52 +38 +40 очень
душно
1011.5 1006.8
12 22.08 С 6-12
{14}
50 км 9/3 600 м
[Cu med, cong Ac lent Ci fib]
+31.9 +18.2 44 +36 +38 очень
душно
1011.9 1007.2
15 22.08 С 6-11
{13}
20 км 9/3 600 м
[Sc Ac lent Ci fib]
+30.7 +17.2 44 +34 +35 очень
душно
1012.2 1007.5
18 22.08 С 5-11
{11}
20 км 9/0
[Ci fib]
+29.2 +16.8 47 +33 +33 очень
душно
1013.3 1008.6 +33.5
21 22.08 С 7-12
{13}
20 км 9/0
[Ci fib]
+29.2 +17.0 48 +33 +33 очень
душно
1013.3 1008.6
00 23.08 С 8-13
{14}
20 км 9/0
[Ci fib]
+28.0 +17.2 52 +32 +32 душно 1013.0 1008.3
03 23.08 СЗ 8-14
{14}
50 км ясно +26.4 +18.9 63 +31 +31 душно 1013.7 1009.0 +26.3

 

Местоположение метеостанции Карадаг (Крым, Россия): широта 44.90 долгота 35.20 высота над уровнем моря 42 м.

В архиве по умолчанию представлена погода в Карадаге за последнюю неделю. Архивные данные за месяц целиком и за предыдущие месяцы, начиная с января 2011 года, Вы можете получить, выбрав интересующий диапазон дат из раскрывающегося списка и нажав кнопку "Ввод!".


*Определитесь, кто Вы:
робот инопланетянин человек

Внимание! Время в таблицах - всемирное. Для получения местного времени необходимо прибавить поправку, которая равна 3 ч.

Смотрите также архив погоды в соседних городах и на ближайших метеорологических станциях:

Погода в Феодосии (Крым, Россия) (20 км)
Погода в Владиславовке (Крым, Россия) (33 км)
Погода в Белогорске (Крым, Россия) (50 км)
Погода в Алуште (Крым, Россия) (68 км)
Погода на Ангарском Перевале (Крым, Россия) (69 км)
Погода в Нижнегорском (Крым, Россия) (71 км)
Погода в Мысовом (Крым, Россия) (78 км)
Погода в Симферополе город (Крым, Россия) (85 км)
Погода в Никитском саду (Крым, Россия) (86 км)
Погода в Стрелковом (Херсонская область, Украина) (88 км)

Пояснения к столбцам:

Ветер - указаны скорость ветра в м/с - средняя за 10 мин, порывы в срок и между сроками (в фигурных скобках) и направление, откуда дует ветер: С - северный, СВ - северо-восточный, В - восточный, ЮВ - юго-восточный, Ю - южный, ЮЗ - юго-западный, З - западный, СЗ - северо-западный.
Видимость - горизонтальная дальность видимости в метрах или километрах. При видимости от 1 до 10 км при отсутствии осадков обычно наблюдается дымка, при ухудшении видимости до 1 км и менее - туман. В сухую погоду видимость может ухудшаться дымом, пылью или мглою.
Явления - указаны атмосферные явления, наблюдавшиеся в срок или в последний час перед сроком; фигурными скобками обозначены явления, наблюдавшиеся между сроками (за 1-3 часа до срока); квадратными скобками обозначены град или гололедные отложения с указанием их диаметра в мм.
Облачность - указаны через наклонную черту общая и нижняя облачность в баллах и высота нижней границы облаков в метрах; квадратными скобками обозначены формы облаков: Ci - перистые, Cs - перисто-слоистые, Cc - перисто-кучевые, Ac - высококучевые, As - высокослоистые, Sc - слоисто-кучевые, Ns - слоисто-дождевые, Cu - кучевые, Cb - кучево-дождевые. Подробнее классификацию облаков см. в Атласе облаков (PDF).
T - Температура воздуха - температура, измеренная на высоте 2 м над землей.
Td - Температура точки росы - температура, при понижении до которой содержащийся в воздухе водяной пар достигнет насыщения.
f - Относительная влажность воздуха - влажноcть воздуха, измеренная на высоте 2 м над землей.
Te - Эффективная температура - температура, которую ощущает одетый по сезону человек в тени. Характеристика душности погоды. При расчете учитывается влияние влажности воздуха и скорости ветра на теплоощущения человека.
Tes - Эффективная температура на солнце - температура, которую ощущает человек, с поправкой на солнечный нагрев. Характеристика знойности погоды. Зависит от высоты солнца над горизонтом, облачности и скорости ветра. Ночью, в пасмурную погоду, а также при ветре 12 м/с и более поправка равна нулю.
P - Атмосферное давление - приведенное к уровню моря атмосферное давление.
Po - Атмосферное давление - измеренное на уровне метеостанции атмосферное давление.
Tmin - Минимальная температура - минимум температуры воздуха на высоте 2 м над землей.
Tmax - Максимальная температура - максимум температуры воздуха на высоте 2 м над землей.
R - Количество осадков - Количество выпавших осадков за период времени, мм. При наведении курсора мыши на число - период времени, за который выпало указанное количество осадков.
R24 - Количество осадков - Количество выпавших осадков за 24 часа, мм.
S - Снежный покров - Высота снежного покрова, см. При наведении курсора мыши на число - состояние снежного покрова и степень покрытия местности в баллах.